Total_Precipitation_Accumulation
0.00 0.00 0.02 0.01 0.00 0.00 0.00 0.00 0.00 0.00 0.01 0.01 0.02 0.02 0.00 0.00 0.00 0.00 0.00 0.01 0.01 0.02 0.02 0.02 0.02 0.02 0.02 0.03 0.03 0.03 0.02 0.02 0.02 0.03 0.03 0.03 0.04 0.06 0.12 0.12 0.21 0.22 0.11
0.00 0.00 0.02 0.01 0.00 0.00 0.00 0.00 0.00 0.00 0.00 0.00 0.01 0.01 0.00 0.00 0.00 0.00 0.00 0.01 0.01 0.01 0.01 0.02 0.02 0.01 0.01 0.01 0.02 0.01 0.01 0.01 0.02 0.03 0.03 0.03 0.06 0.12 0.14 0.11 0.22 0.19 0.08
0.00 0.00 0.01 0.01 0.00 0.00 0.00 0.00 0.00 0.00 0.01 0.00 0.00 0.00 0.01 0.01 0.00 0.00 0.01 0.01 0.01 0.01 0.01 0.01 0.01 0.01 0.00 0.00 0.00 0.00 0.00 0.01 0.02 0.04 0.07 0.07 0.04 0.10 0.14 0.12 0.12 0.06 0.06
0.00 0.00 0.00 0.01 0.00 0.00 0.00 0.00 0.00 0.01 0.01 0.01 0.01 0.01 0.01 0.01 0.01 0.01 0.01 0.01 0.01 0.01 0.01 0.01 0.01 0.00 0.00 0.00 0.00 0.00 0.00 0.01 0.02 0.05 0.20 0.19 0.04 0.04 0.08 0.08 0.07 0.06 0.06
0.00 0.00 0.00 0.00 0.00 0.00 0.00 0.01 0.01 0.01 0.01 0.01 0.01 0.01 0.01 0.01 0.01 0.01 0.01 0.01 0.01 0.01 0.01 0.00 0.00 0.00 0.00 0.01 0.02 0.01 0.00 0.00 0.02 0.06 0.13 0.15 0.13 0.07 0.05 0.07 0.06 0.06 0.07
0.00 0.00 0.00 0.00 0.00 0.00 0.00 0.01 0.01 0.01 0.01 0.01 0.01 0.01 0.01 0.02 0.01 0.02 0.01 0.01 0.01 0.01 0.01 0.01 0.01 0.00 0.00 0.01 0.02 0.01 0.01 0.01 0.02 0.06 0.07 0.09 0.16 0.13 0.09 0.16 0.19 0.15 0.09
0.00 0.00 0.00 0.00 0.00 0.00 0.00 0.01 0.01 0.01 0.01 0.01 0.01 0.01 0.01 0.01 0.02 0.02 0.01 0.01 0.01 0.01 0.01 0.01 0.01 0.01 0.01 0.01 0.01 0.01 0.00 0.01 0.03 0.07 0.07 0.09 0.12 0.12 0.17 0.32 0.43 0.37 0.26
0.00 0.00 0.00 0.01 0.00 0.00 0.00 0.01 0.01 0.01 0.01 0.01 0.01 0.01 0.01 0.01 0.02 0.02 0.03 0.02 0.02 0.02 0.02 0.02 0.01 0.02 0.02 0.02 0.02 0.02 0.02 0.01 0.01 0.03 0.05 0.08 0.07 0.11 0.27 0.46 0.57 0.58 0.52
0.00 0.00 0.00 0.00 0.00 0.00 0.00 0.01 0.01 0.01 0.01 0.01 0.01 0.01 0.01 0.01 0.03 0.04 0.06 0.05 0.04 0.04 0.04 0.03 0.02 0.02 0.02 0.03 0.03 0.03 0.03 0.03 0.03 0.04 0.05 0.07 0.09 0.17 0.43 0.60 0.66 0.71 0.73
0.00 0.00 0.00 0.01 0.00 0.00 0.00 0.01 0.01 0.01 0.01 0.01 0.01 0.01 0.01 0.01 0.03 0.05 0.06 0.08 0.11 0.11 0.11 0.08 0.05 0.04 0.04 0.04 0.03 0.02 0.03 0.04 0.02 0.04 0.07 0.08 0.13 0.28 0.49 0.62 0.79 0.86 0.83
0.01 0.01 0.01 0.01 0.01 0.01 0.01 0.01 0.02 0.02 0.02 0.02 0.02 0.02 0.03 0.02 0.03 0.11 0.15 0.20 0.22 0.24 0.23 0.19 0.15 0.14 0.14 0.08 0.09 0.14 0.10 0.04 0.03 0.05 0.05 0.07 0.16 0.36 0.56 0.71 0.85 0.92 0.89
0.05 0.04 0.04 0.03 0.02 0.02 0.02 0.03 0.03 0.03 0.05 0.04 0.06 0.10 0.13 0.18 0.15 0.10 0.21 0.40 0.46 0.53 0.50 0.45 0.45 0.35 0.24 0.18 0.53 0.76 0.24 0.15 0.14 0.10 0.09 0.19 0.34 0.52 0.72 0.75 0.77 0.81 0.80
0.17 0.14 0.08 0.05 0.05 0.05 0.05 0.04 0.04 0.05 0.12 0.12 0.12 0.20 0.32 0.31 0.23 0.19 0.22 0.41 0.55 0.62 0.50 0.68 0.80 0.53 0.51 0.64 0.92 0.94 0.47 0.39 0.23 0.17 0.18 0.30 0.51 0.77 0.97 0.88 0.78 0.74 0.74
0.26 0.20 0.14 0.11 0.10 0.11 0.13 0.11 0.11 0.12 0.17 0.19 0.25 0.28 0.39 0.41 0.34 0.31 0.36 0.39 0.48 0.57 0.73 0.87 0.98 0.90 0.92 0.90 1.02 0.88 0.71 0.67 0.46 0.49 0.48 0.57 0.66 0.79 1.11 1.13 0.91 0.82 0.76
0.22 0.16 0.18 0.20 0.24 0.28 0.30 0.30 0.27 0.27 0.28 0.31 0.40 0.43 0.47 0.57 0.53 0.51 0.50 0.51 0.49 0.63 0.87 1.06 1.06 1.13 1.23 1.17 1.02 0.95 0.92 0.89 0.86 0.96 0.84 0.90 0.87 0.90 1.16 1.20 1.02 0.88 0.80
0.36 0.41 0.45 0.47 0.55 0.60 0.60 0.55 0.48 0.45 0.48 0.48 0.54 0.56 0.61 0.74 0.81 0.79 0.71 0.73 0.64 0.71 0.85 1.06 1.18 1.44 1.40 1.35 1.06 0.99 1.01 1.05 0.99 1.06 1.07 1.19 1.08 0.97 1.08 1.09 1.05 0.97 0.87
0.55 0.70 0.81 0.94 1.05 1.09 1.02 0.88 0.80 0.81 0.82 0.83 0.86 0.89 1.01 1.09 1.14 1.10 0.95 0.86 0.92 1.02 1.09 1.17 1.28 1.49 1.43 1.31 1.05 1.06 1.07 0.99 0.88 0.88 0.94 1.07 1.06 0.94 0.92 0.92 0.93 0.91 0.89
0.66 0.83 1.13 1.49 1.60 1.54 1.46 1.33 1.24 1.19 1.15 1.14 1.16 1.22 1.30 1.36 1.38 1.32 1.08 0.97 1.25 1.32 1.31 1.39 1.42 1.49 1.57 1.57 1.30 1.14 1.09 0.99 0.83 0.81 0.79 0.81 0.85 0.70 0.74 0.84 0.90 0.87 0.94
0.92 1.31 1.83 2.02 2.09 2.11 1.93 1.76 1.64 1.58 1.47 1.40 1.46 1.40 1.44 1.53 1.48 1.48 1.20 1.11 1.40 1.54 1.50 1.42 1.60 1.79 1.74 1.73 1.49 1.24 1.02 0.86 0.71 0.67 0.68 0.65 0.62 0.60 0.61 0.63 0.64 0.71 0.94
1.36 1.85 2.24 2.49 2.66 2.65 2.60 2.39 2.06 1.81 1.60 1.57 1.54 1.43 1.35 1.31 1.41 1.60 1.32 1.31 1.58 1.63 1.58 1.67 1.80 1.95 1.80 1.82 1.62 1.16 0.92 0.68 0.62 0.51 0.45 0.46 0.40 0.37 0.40 0.52 0.63 0.60 0.80
1.58 1.93 2.41 2.72 2.79 2.77 2.79 2.51 2.13 1.77 1.60 1.48 1.38 1.31 1.31 1.36 1.49 1.75 1.53 1.53 1.60 1.52 1.50 1.68 1.80 1.73 1.58 1.95 1.86 1.17 0.71 0.54 0.45 0.30 0.29 0.28 0.24 0.24 0.33 0.49 0.60 0.64 0.63
1.41 1.78 2.12 2.17 2.00 1.87 1.87 1.85 1.73 1.66 1.52 1.38 1.34 1.38 1.36 1.41 1.48 1.59 1.60 1.53 1.54 1.51 1.37 1.44 1.69 1.56 1.27 1.66 1.79 1.56 0.95 0.54 0.37 0.25 0.23 0.22 0.23 0.30 0.36 0.40 0.48 0.61 0.64
1.21 1.37 1.51 1.39 1.27 1.25 1.34 1.45 1.51 1.62 1.54 1.54 1.60 1.65 1.51 1.53 1.54 1.61 1.52 1.38 1.33 1.35 1.22 1.22 1.42 1.48 1.28 1.32 1.61 1.82 1.33 0.74 0.50 0.31 0.32 0.35 0.41 0.48 0.50 0.53 0.56 0.59 0.64
0.97 1.05 1.20 1.18 1.13 1.21 1.44 1.54 1.58 1.72 1.84 1.99 2.19 2.13 1.98 1.82 1.70 1.61 1.43 1.27 1.11 1.09 1.04 1.02 1.17 1.28 1.29 1.10 1.20 1.29 1.22 1.10 0.96 0.56 0.39 0.43 0.55 0.60 0.61 0.66 0.63 0.61 0.66
0.83 0.87 1.07 1.19 1.31 1.52 1.71 1.81 1.89 1.97 2.05 2.05 2.07 1.99 1.88 1.79 1.65 1.50 1.36 1.23 1.12 1.04 0.97 0.95 0.99 1.03 1.07 0.99 1.01 1.05 1.08 1.06 0.99 0.86 0.59 0.58 0.57 0.46 0.46 0.52 0.63 0.76 0.74
1.07 1.00 1.05 1.22 1.41 1.58 1.68 1.75 1.78 1.74 1.71 1.61 1.50 1.39 1.32 1.29 1.24 1.18 1.09 0.99 0.94 0.94 0.95 0.92 0.89 0.91 0.92 0.94 0.95 0.97 1.05 1.08 1.10 1.10 0.91 0.78 0.68 0.56 0.53 0.52 0.58 0.70 0.75